Regional Weather Roundup
Issued by NWS

Home | Current Version | Previous Version | Text Only | Print | Product List | Glossary On
Versions: 1 2 3 4 5 6 7 8 9 10 11 12 13 14 15 16 17 18 19 20 21 22 23 24 25 26 27 28 29 30 31 32 33 34 35 36 37 38 39 40 41 42 43 44 45 46 47 48 49 50
000
ASUS43 KMKX 312300
RWRWI

WISCONSIN REGIONAL WEATHER ROUNDUP
NATIONAL WEATHER SERVICE MILWAUKEE/SULLIVAN WI
600 PM CDT MON AUG 31 2015

NOTE: "FAIR" INDICATES FEW OR NO CLOUDS BELOW 12,000 FEET WITH NO
SIGNIFICANT WEATHER AND/OR OBSTRUCTIONS TO VISIBILITY.

WIZ001-002-006>008-014>016-023>028-010000-
NORTHWEST WISCONSIN

CITY           SKY/WX    TMP DP  RH WIND       PRES   REMARKS
SUPERIOR ARPT  SUNNY     81  69  68 SW12G22   29.83S HX  84
ASHLAND        SUNNY     78  69  73 S9        29.88R HX  80
HAYWARD        SUNNY     77  69  76 S14       29.91F
SIREN          SUNNY     82  68  64 S7        29.89R HX  84
CUMBERLAND     CLOUDY    77  70  78 S9        29.92S
RICE LAKE      SUNNY     79  70  74 S9        29.94R HX  82
CHETEK         MOSUNNY  N/A N/A N/A MISG      29.93S
LADYSMITH      SUNNY     77  69  76 S6        29.97S
EAU CLAIRE     NOT AVBL
MENOMONIE      SUNNY     82  71  70 S8        29.92S HX  86
NEW RICHMOND   SUNNY     82  69  63 S10       29.90F HX  85
OSCEOLA        MOSUNNY   83  70  65 S7        29.91S HX  86
$$

WIZ003>005-009-010-017-018-010000-
NORTH CENTRAL WISCONSIN

CITY           SKY/WX    TMP DP  RH WIND       PRES   REMARKS
MANITOWISH WTR SUNNY     76  66  70 SW10G21   29.96R
ARBOR VITAE    SUNNY     77  67  72 S14       29.98R
WOODRUFF       SUNNY     77  67  72 S14       29.98R
RHINELANDER    SUNNY     75  65  70 SW12G20   30.00R
EAGLE RIVER    SUNNY     77  63  61 SW7       29.96F
LAND O LAKES   SUNNY     79  62  56 SW5       29.97S HX  80
PHILLIPS       SUNNY     75  67  77 SW10      29.96F
TOMAHAWK       SUNNY     74  65  73 SW3       30.00S
MEDFORD        MOSUNNY   75  69  83 S8        30.00S
MERRILL        SUNNY     75  68  77 S7        30.00S
$$

WIZ029-030-035-036-043>047-010000-
CENTRAL WISCONSIN

CITY           SKY/WX    TMP DP  RH WIND       PRES   REMARKS
WAUSAU         SUNNY     77  67  71 S7        29.98F
MOSINEE        SUNNY     75  70  83 S6        30.01S
MARSHFIELD     SUNNY     79  67  66 S8        29.99S HX  81
STEVENS POINT  SUNNY     78  67  70 SW5       30.00S
WAUPACA        SUNNY     82  68  63 S7        29.99S HX  84
WAUTOMA        NOT AVBL
WISC RAPIDS    SUNNY     80  67  64 S6        30.00S HX  82
CAMP DOUGLAS   NOT AVBL
$$

WIZ011>013-019>022-031-037>040-048>050-010000-
NORTHEAST WISCONSIN

CITY           SKY/WX    TMP DP  RH WIND       PRES   REMARKS
ANTIGO         SUNNY     75  66  72 SW12      30.01S
SHAWANO        SUNNY     80  69  69 SW3       29.98S HX  82
OCONTO         MOSUNNY   77  70  78 SW6       29.97S
STURGEON BAY   SUNNY     75  66  73 S5        30.01R
GREEN BAY      SUNNY     77  69  76 S6        29.99S
MANITOWOC      NOT AVBL
APPLETON       MOSUNNY   79  66  65 S9        29.99R HX  81
CLINTONVILLE   SUNNY     79  68  69 SW6       29.98S HX  81
OSHKOSH        SUNNY     78  69  73 S6        30.00R HX  80
$$

WIZ032>034-041-042-053>061-010000-
SOUTHWEST WISCONSIN

CITY           SKY/WX    TMP DP  RH WIND       PRES   REMARKS
LA CROSSE      SUNNY     83  70  64 S12       29.94F HX  87
SPARTA         SUNNY     82  67  59 S6        29.98S HX  84
VIROQUA          N/A     81  68  66 S8        30.00S HX  83
BOSCOBEL       MOSUNNY   84  70  62 S5        29.97F HX  88
PRAIRIE DU CHI SUNNY     83  68  59 SE6       29.96F HX  86
PLATTEVILLE    SUNNY     82  72  71 S8        30.01R HX  86
$$

WIZ056-057-062-063-064-067-068-010000-
SOUTH CENTRAL WISCONSIN

CITY           SKY/WX    TMP DP  RH WIND       PRES   REMARKS
REEDSBURG      SUNNY     81  69  67 S7        29.99S HX  84
BARABOO/DELLS  SUNNY     81  65  58 SW8       30.00S HX  83
LONE ROCK      NOT AVBL
MINERAL POINT  NOT AVBL
MADISON        MOSUNNY   81  67  62 S9        30.00S HX  83
MIDDLETON      SUNNY    N/A N/A N/A W8        30.01F
WATERTOWN      SUNNY     80  69  68 S6        30.01S HX  83
MONROE         SUNNY     81  68  65 S10       30.01F HX  83
JANESVILLE     MOSUNNY   82  68  61 S8        30.00F HX  85
$$

WIZ051-052-058>065-066-070>072-010000-
SOUTHEAST WISCONSIN

CITY           SKY/WX    TMP DP  RH WIND       PRES   REMARKS
MILWAUKEE      PTSUNNY   74  65  73 SE8       30.01F
WAUKESHA       SUNNY     79  66  65 SW6       30.03S HX  81
MILWAUKEE/TIMM SUNNY     81  64  57 S7        30.01F HX  82
RACINE         SUNNY     75  64  68 S7        30.03F
BURLINGTON     MOSUNNY   80  67  64 S5        30.02S HX  82
KENOSHA        SUNNY     77  68  73 SE6       30.02F
FOND DU LAC    SUNNY     79  69  71 SW6       30.00S HX  81
SHEBOYGAN      SUNNY     75  69  81 S8        30.01R
WEST BEND      SUNNY     79  64  61 CALM      30.01S HX  81
JUNEAU         SUNNY     79  69  71 S6        30.02S HX  81
$$

LSZ147-162-010000-
LAKE SUPERIOR

STATION/POSITION TIME  TEMP    WIND        PRES    WAVE
                       AIR SEA DIR/SP/G            HT/PER
                 (UTC) (F)     (DEG/KT/KT) (MB)    (FT/S)
W MID LAKE BUOY  2150   62 58  270/  2/  2 1010.5F   1
DEVILS ISLAND    2200   76     200/  5/  6 1009.9F
PORT WING        2200   81     200/ 14/ 20 1010.2S
SAXON HARBOR     2240   80     190/  6/ 11 1010.8S
$$

LMZ867-665-643>646-010000-
LAKE MICHIGAN

STATION/POSITION TIME  TEMP    WIND        PRES    WAVE
                       AIR SEA DIR/SP/G            HT/PER
                 (UTC) (F)     (DEG/KT/KT) (MB)    (FT/S)
CHAMBERS ISLAND  2200   74     180/  7/ 15 1014.6F
S GREEN BAY BUOY 2100   69 64  210/  8/  8 1016.6
N MID LAKE BUOY  2150   65 65  200/ 14/ 16 1014.9S   2/ 4
NORTHPORT PIER   2200   71     150/  5/ 11 1014.6F
KEWAUNEE LAKESHO 2200   53     170/ 10/ 11 1014.7S
SHEBOYGAN LAKESH 2200   67     180/ 18/ 19 1016.0F
PORT WASHINGTON  2240   63     200/  4/  8 1016.9S
ATWATER BUOY     2200   58 51  190/  6/  6 1017.9S
MILWAUKEE LAKESH 2210   62     150/ 14/ 14   N/A
S MID LAKE BUOY  2150   70 71  150/  6/  6 1016.5F   0
KENOSHA   LAKESH 2200   69     170/  8/ 10 1016.3S
$$

TC  - TEMPERATURE IN CELSIUS
VSB - VISIBILITY IN STATUTE MILES
WCI - WIND CHILL INDEX
HX  - HEAT INDEX



USA.gov is the U.S. government's official web portal to all federal, state and local government web resources and services.